Regional Weather Roundup
Issued by NWS

Home | Current Version | Previous Version | Graphics & Text | Print | Product List | Glossary On
Versions: 1 2 3 4 5 6 7 8 9 10 11 12 13 14 15 16 17 18 19 20 21 22 23 24 25 26 27 28 29 30 31 32 33 34 35 36 37 38 39 40 41 42 43 44 45 46 47 48 49 50
000
ASUS43 KBIS 010702
RWRND

NORTH DAKOTA REGIONAL WEATHER ROUNDUP
NATIONAL WEATHER SERVICE BISMARCK ND
200 AM CDT WED JUL 01 2015

NOTE: "FAIR" INDICATES FEW OR NO CLOUDS BELOW 12,000 FEET WITH NO
SIGNIFICANT WEATHER AND/OR OBSTRUCTIONS TO VISIBILITY.


NDZ001>003-009>011-017-010800-
NORTHWEST NORTH DAKOTA

CITY           SKY/WX    TMP DP  RH WIND       PRES   REMARKS
WILLISTON      MOCLDY    63  60  90 N7        29.94R FOG
MINOT          PTCLDY    61  58  90 NW5       29.91R FOG
$$

NDZ018>021-031>035-040>046-010800-
SOUTHWEST NORTH DAKOTA

CITY           SKY/WX    TMP DP  RH WIND       PRES   REMARKS
BISMARCK       CLEAR     64  63  96 SE10      29.90S FOG
DICKINSON      CLOUDY    63  61  93 E12       29.90S FOG
GARRISON         N/A     61  60  97 E3        29.91S
HETTINGER ARPT PTCLDY    62  59  90 E8        29.92S FOG
$$

NDZ004>008-012>016-024-026-027-054-010800-
NORTHEAST NORTH DAKOTA

CITY           SKY/WX    TMP DP  RH WIND       PRES   REMARKS
GRAND FORKS    MOCLDY    61  58  90 E3        29.92R
GRND FRKS AFB  PTCLDY    59  58  96 NE2       29.92S
DEVILS LAKE    PTCLDY    64  55  72 S6        29.92S
$$

NDZ022-023-025-028>030-036>039-047>053-010800-
SOUTHEAST NORTH DAKOTA

CITY           SKY/WX    TMP DP  RH WIND       PRES   REMARKS
FARGO          CLOUDY    65  60  84 CALM      29.90F
JAMESTOWN      LGT RAIN  64  61  90 SE9       29.90F
$$




USA.gov is the U.S. government's official web portal to all federal, state and local government web resources and services.